Other Public Products
Issued by NWS Grand Forks, ND

Home | Current Version | Previous Version | Text Only | Print | Product List | Glossary Off
Versions: 1 2 3 4 5 6 7 8 9 10 11 12 13 14 15 16 17 18 19 20 21 22 23 24 25 26 27 28 29 30 31 32 33 34 35 36 37 38 39 40 41 42 43 44 45 46 47 48 49 50

000
FPUS83 KFGF 290731
OPUFGF
PRAIRIE TO PINES WEATHER ROUNDUP
NATIONAL WEATHER SERVICE EASTERN NORTH DAKOTA/GRAND FORKS ND
100 AM CST THU JAN 29 2015

 **SATELLITE DATA USED TO AUGMENT SKY COVER AT AUTOMATED STATIONS**
 *****  WEATHER ACROSS EASTERN NORTH DAKOTA  *****

CITY           SKY/WX    TMP DP  RH WIND       PRES   REMARKS
GRAND FORKS    CLOUDY    21  18  86 NW22G29   30.16R WCI   5
GRAND FORKS AF CLOUDY    23  19  84 N14       30.17R WCI  10
GRAND CITY NWS   N/A     21 N/A N/A N13         N/A  WCI   9
BUXTON           N/A     24  22  92 NW18        N/A  WCI  10
DEVILS LAKE    CLOUDY    23  18  80 N17G26    30.20R WCI   9
FARGO          CLOUDY    28  23  81 NW28G33   30.11R WCI  13
WAHPETON ARPT  CLOUDY    30  25  80 N23G35    30.09R WCI  17
$$

 *****  WEATHER ACROSS CENTRAL AND WESTERN NORTH DAKOTA  *****

CITY           SKY/WX    TMP DP  RH WIND       PRES   REMARKS
JAMESTOWN      CLOUDY    27  22  81 N21G30    30.17R WCI  13
BISMARCK       CLOUDY    32  27  81 NW14      30.27R WCI  22
MINOT          CLOUDY    26  20  77 NW23G31   30.28R WCI  11
MINOT AFB      CLOUDY    27  25  93 NW16G26   30.28R WCI  14
GARRISON         N/A     30  26  85 N17G25    30.27R WCI  18
WILLISTON      CLOUDY    31  25  78 NW12      30.35R WCI  22
DICKINSON      CLOUDY    33  24  69 NW18G26   30.27R WCI  22
HETTINGER      CLOUDY    33  25  72 NW21G29   30.30R WCI  21
$$

 *****  OTHER OBSERVATIONS NORTHEAST NORTH DAKOTA  *****

CITY           SKY/WX    TMP DP  RH WIND       PRES   REMARKS
WALHALLA         N/A     18  18 100 N18       30.23R WCI   2
LANGDON        CLOUDY    18  14  86 N24       30.17R WCI   0
CAVALIER       CLOUDY    18  14  86 N24G31    30.21R WCI   0
GRAFTON        NOT AVBL
CANDO          CLOUDY    23  18  80 NW21G28   30.22R WCI   8
FORT TOTTEN      N/A     24  21  88 NW7       29.95  WCI  16
ROLLA          CLOUDY    19  19 100 NW23      30.22R WCI   2
RUGBY          CLOUDY    25  23  93 NW20G28   30.24R WCI  11
 ***** THE ABOVE OBSERVATIONS ARE NON NWS ARE NOT QUALITY
        CONTROLLED AND MAY MIS-REPORT RAIN FOR SNOW...
$$

 *****  OTHER OBSERVATIONS SOUTHEAST NORTH DAKOTA *****

CITY           SKY/WX    TMP DP  RH WIND       PRES   REMARKS
COOPERSTOWN    NOT AVBL
VALLEY CITY    FLURRIES  25  25 100 N25G32    30.16R WCI   9
OAKES            N/A     28  27  93 NW33G39   30.15R WCI  12
GWINNER        CLOUDY    30  30 100 N22       30.16R WCI  17
BUFFALO        NOT AVBL
WYNDMERE         N/A     28  27  93 NW21        N/A  WCI  15
 ***** THE ABOVE OBSERVATIONS ARE NON NWS ARE NOT QUALITY
       CONTROLLED AND MAY MIS-REPORT RAIN FOR SNOW...
$$

  *****  WEATHER ACROSS NORTHERN MINNESOTA  *****

CITY           SKY/WX    TMP DP  RH WIND       PRES   REMARKS
FLAG ISLAND    CLOUDY    23  21  93 NW25      30.01R WCI   7
WARROAD        CLOUDY    21  18  86 NW16G22   30.04R WCI   7
ROSEAU         CLOUDY    23  18  80 NW20G25   30.06R WCI   8
HALLOCK        CLOUDY    18  14  86 NW21G30   30.16R WCI   1
THF RVR FALLS  CLOUDY    19  18  93 NW18      30.09R WCI   4
HALSTAD          N/A     25  21  87 N20         N/A  WCI  10
FOSSTON        CLOUDY    19  18  93 NW16G23   30.06R FOG     WCI   5
BAUDETTE       CLOUDY    26  23  88 NW17G25   29.96R WCI  13
WASKISH        CLOUDY    28  27  93 N10       29.97R WCI  19
CROOKSTON      CLOUDY    19  18  93 N20G26    30.15R WCI   4
$$
  *****  WEATHER ACROSS CENTRAL AND WEST MINNESOTA  *****

CITY           SKY/WX    TMP DP  RH WIND       PRES   REMARKS
BEMIDJI        CLOUDY    28  27  96 NW23      29.97R WCI  14
PARK RAPIDS    CLOUDY    29  27  92 NW21G30   29.94R FOG     WCI  16
WADENA         CLOUDY    27  27 100 NW18G26   29.97R FOG     WCI  13
DETROIT LAKES  CLOUDY    25  23  93 NW20G29   30.04R WCI  11
MOORHEAD       CLOUDY    28  27  93 NW24G32   30.12R WCI  14
FERGUS FALLS   CLOUDY    27  27 100 NW28G36   30.08R WCI  11
ELBOW LAKE     CLOUDY    27  26  96 NW26G36   30.03R WCI  12
MORRIS MN      CLOUDY    30  28  93 NW28G37   30.01R WCI  16
STAPLES        CLOUDY    28  28 100 NW18G24   29.94R WCI  16
WHEATON        CLOUDY    28  25  86 NW25G33   30.10R WCI  14
$$
  *****  WEATHER ELSEWHERE ACROSS MINNESOTA  *****

CITY           SKY/WX    TMP DP  RH WIND       PRES   REMARKS
DULUTH         FRZ DRZL  29  26  89 NW10      29.81S FOG     WCI  20
INTRNTL FALLS  CLOUDY    28  23  81 NW13      29.90R WCI  17
ELY            CLOUDY    27  27 100 NW8       29.81R FOG     WCI  18
CLOQUET        CLOUDY    28  27  93 NW8       29.83S FOG     WCI  20
BRAINERD       CLOUDY    32  30  92 NW14      29.90R WCI  22
HIBBING        CLOUDY    31  25  78 N18       29.85R WCI  19
ALEXANDRIA     CLOUDY    29  27  92 NW22G33   29.96R WCI  15
SAINT CLOUD    CLOUDY    31  30  96 NW12      29.90R FOG     WCI  22
MINNEAPOLIS    CLOUDY    31  28  89 NW9       29.88R FOG     WCI  23
$$

  *****  WEATHER ACROSS SOUTH DAKOTA  *****

CITY           SKY/WX    TMP DP  RH WIND       PRES   REMARKS
SIOUX FALLS    CLOUDY    34  27  75 N25G32    30.04R WCI  21
BROOKINGS      NOT AVBL
WATERTOWN      CLOUDY    30  27  88 NW26G36   30.05R WCI  16
HURON          CLOUDY    33  27  78 N21G35    30.16R WCI  21
SISSETON         N/A     31  28  89 N22G36    30.07R WCI  18
ABERDEEN       CLOUDY    32  25  75 N21       30.18R WCI  20
MITCHELL       CLOUDY    35  30  82 NW28G33   30.16R WCI  22
PIERRE         CLOUDY    36  29  75 NW22G29   30.24R
MOBRIDGE       CLOUDY    35  27  72 NW20G31   30.22R WCI  24
RAPID CITY     CLOUDY    34  26  72 N26G33    30.33R WCI  21
$$

  *****  SOME WEATHER IN NEARBY STATES *****

CITY           SKY/WX    TMP DP  RH WIND       PRES   REMARKS
GLASGOW MT     CLEAR     26  23  88 NW3       30.40R
GREAT FALLS MT CLEAR     29  26  89 S3        30.37S
CHEYENNE WY    CLOUDY    36  25  64 N12       30.33R
SCOTTSBLUFF NE CLOUDY    38  27  64 NW14      30.34R
OMAHA NE       CLOUDY    38  31  76 NW32G43   30.00R
DES MOINES IA  CLOUDY    37  30  75 N28G37    29.83R
DAVENPORT IA   MOCLDY    36  30  79 S5        29.68F
CHICAGO IL     CLOUDY    34  26  72 S12       29.77F
EAU CLAIRE WI  CLOUDY    28  25  88 NW6       29.83R FOG     WCI  22
LA CROSSE WI   CLOUDY    32  28  85 N6        29.81S FOG
$$

  *****  SOME NATIONAL WEATHER *****

CITY           SKY/WX    TMP DP  RH WIND       PRES   REMARKS
LA GUARDIA NY  CLEAR     23   6  48 N7        30.30R WCI  15
RALEIGH NC     PTCLDY    26  14  60 CALM      30.33S
ATLANTA GA     MOCLDY    41  27  57 CALM      30.26R
NEW ORLEANS LA PTCLDY    48  44  86 CALM      30.23S
OKLAHOMA CITY  MOCLDY    58  35  42 NW12      30.06R
ALBUQUERQUE NM MOCLDY    45  30  55 NE6       30.26S
SALT LAKE CITY PTCLDY    35  33  92 CALM      30.37R
LOS ANGELES CA CLOUDY    66  48  52 VRB6      30.07F
BOISE ID       CLEAR     36  34  92 SE13      30.40R
SEATTLE WA     PTCLDY    45  39  81 N9        30.36S
$$

*** WEATHER ACROSS MANITOBA...SASKATCHEWAN AND ONTARIO ***
                ***ONTARIO***

CITY           SKY/WX    TMP DP  RH WIND       PRES   REMARKS
GERALDTON      LGT SNOW N/A N/A N/A E9          N/A  VSB 3/4
THUNDER BAY    FLURRIES  28  27  93 SW7       29.77F WCI  21
SIOUX LOOKOUT  FLURRIES  16  12  86 N8G17     29.86R WCI   5
TORONTO        CLOUDY    21   9  58 S5        30.22F WCI  15
BIG TROUT LK   CLOUDY    -8 -15  71 N3        30.13S
PICKLE LAKE    NOT AVBL
DRYDEN         CLOUDY    18  16  93 NW12G17   29.89R WCI   5
KENORA         CLOUDY    18  16  93 N15G23    29.97R WCI   3
$$
                *** MANITOBA***

CITY           SKY/WX    TMP DP  RH WIND       PRES   REMARKS
BRANDON        CLOUDY    19  14  79 NW25G32   30.25R WCI   2
DAUPHIN        FLURRIES   9   5  85 N8        30.34R WCI  -4
ISLAND LAKE    FLURRIES  -4  -9  77 N8        30.22R WCI -19
PILOT MOUND      N/A     14  12  92 N10         N/A  WCI   1
THE PAS        FLURRIES  -6 -11  77 NW13      30.40R WCI -25
THOMPSON       FLURRIES -11 -17  77 NW5       30.33R WCI -23
WINNIPEG       CLOUDY    12   7  79 NW21      30.20R WCI  -6
LYNN LAKE      CLEAR    -17 -22  76 NW10      30.35R WCI -37
CHURCHILL      CLEAR    -22 -29  69 W13       30.26S WCI -46
GILLAM         FLURRIES -15 -20  76 W7        30.29S WCI -31
$$
                ***SASKATCHEWAN***

CITY           SKY/WX    TMP DP  RH WIND       PRES   REMARKS
ESTEVAN        FLURRIES  23  19  86 NW20      30.33R WCI   8
KINDERSLEY     PTCLDY    10   7  85 NE5       30.41R WCI   2
LLOYDMINSTER   CLEAR      3   0  85 NW2       30.42R
PRINCE ALBERT  FLURRIES   5   0  78 N9        30.46R WCI  -9
REGINA         CLOUDY    21  18  86 N14       30.37R WCI   8
YORKTON        FLURRIES  10   7  85 N14G22    30.34R WCI  -5



USA.gov is the U.S. government's official web portal to all federal, state and local government web resources and services.